This demonstration page uses our WeatherBlox Daily Observations layout. Learn more.

Left ArrowRight Arrow

41.86663, -103.66717

Hourly Observations for July 15, 2021

Temp ( °F °C ) Dew Point ( °F °C ) Humidity (%) Winds ( mph kmh ) Pressure ( in mb ) Visibility ( mi km ) Precip ( " mm )
12:53 am 00:53 Clear 64 17.8 59 15 84 84 E 6 9 30.00 1016 10 16 0.00 0.00
1:30 am 01:30 Mostly Cloudy 64 17.8 59 15 84 84 ESE 8 13 29.96 1015 10 16 0.00 0.00
1:53 am 01:53 Partly Cloudy 63 17.2 59 15 87 87 ESE 9 15 29.98 1015 9 14 0.00 0.00
2:29 am 02:29 Mostly Cloudy 63 17.2 59 15 87 87 ESE 6 9 29.97 1015 9 14 0.00 0.00
2:53 am 02:53 Cloudy 64 17.8 59 15 84 84 ESE 8 13 29.98 1015 10 16 0.00 0.00
3:25 am 03:25 Cloudy 64 17.8 60 15.6 87 87 E 5 7 29.95 1014 9 14 0.00 0.00
3:53 am 03:53 Mostly Clear 62 16.7 59 15 90 90 E 7 11 29.98 1015 8 13 0.00 0.00
4:53 am 04:53 Clear 62 16.7 58 14.4 86 86 E 6 9 29.97 1015 7 11 0.00 0.00
5:53 am 05:53 Sunny with Mist and Fog 61 16.1 58 14.4 90 90 ESE 7 11 29.98 1015 5 8 0.00 0.00
6:53 am 06:53 Sunny with Mist and Fog 63 17.2 59 15 87 87 E 6 9 29.98 1015 5 8 0.00 0.00
7:53 am 07:53 Partly Cloudy with Mist and Fog 64 17.8 60 15.6 87 87 ESE 8 13 29.99 1016 6 10 0.00 0.00
8:09 am 08:09 Partly Cloudy 66 18.9 61 16.1 84 84 SE 10 17 29.94 1014 7 11 0.00 0.00
8:53 am 08:53 Mostly Sunny 68 20 59 15 73 73 SE 8 13 29.99 1016 7 11 0.00 0.00
9:53 am 09:53 Sunny 71 21.7 60 15.6 68 68 SE 9 15 29.98 1015 10 16 0.00 0.00
10:53 am 10:53 Partly Cloudy 74 23.3 62 16.7 67 67 ESE 12 19 29.97 1015 10 16 0.00 0.00
11:53 am 11:53 Sunny 79 26.1 61 16.1 54 54 ESE 10 17 29.94 1014 10 16 0.00 0.00
12:53 pm 12:53 Mostly Sunny 82 27.8 62 16.7 51 51 ESE 9 15 29.93 1013 10 16 0.00 0.00
1:53 pm 13:53 Sunny 84 28.9 59 15 43 43 S 10 17 29.90 1013 10 16 0.00 0.00
2:53 pm 14:53 Sunny 86 30 56 13.3 36 36 SSE 12 19 29.87 1012 10 16 0.00 0.00
3:53 pm 15:53 Sunny 88 31.1 54 12.2 31 31 SE 7 11 29.85 1011 10 16 0.00 0.00
4:53 pm 16:53 Sunny 88 31.1 55 12.8 33 33 E 13 20 29.83 1010 10 16 0.00 0.00
5:53 pm 17:53 Sunny 86 30 58 14.4 39 39 E 10 17 29.82 1010 10 16 0.00 0.00
6:53 pm 18:53 Sunny 84 28.9 60 15.6 44 44 E 12 19 29.82 1010 10 16 0.00 0.00
7:53 pm 19:53 Sunny 79 26.1 60 15.6 52 52 ESE 10 17 29.84 1011 10 16 0.00 0.00
8:53 pm 20:53 Clear 74 23.3 61 16.1 64 64 E 8 13 29.85 1011 10 16 0.00 0.00
9:53 pm 21:53 Clear 72 22.2 60 15.6 66 66 ESE 9 15 29.86 1011 10 16 0.00 0.00
10:53 pm 22:53 Clear 70 21.1 59 15 68 68 ESE 10 17 29.88 1012 10 16 0.00 0.00
11:53 pm 23:53 Clear 69 20.6 59 15 70 70 ESE 8 13 29.87 1012 10 16 0.00 0.00

Powered by AerisWeather